Tracking 22879 objects as of 20-Apr-2021
HD Live streaming from Space Station
objects crossing your sky now

HISPASAT 1A

Track HISPASAT 1A now!
HISPASAT 1A is classified as:


NORAD ID: 22116
Int'l Code: 1992-060A
Perigee: 36,032.9 km
Apogee: 36,092.6 km
Inclination: 12.9 °
Period: 1,449.9 minutes
Semi major axis: 42433 km
RCS: 7.143 m2 (large)
Launch date: September 10, 1992
Source: Spain (SPN)
Launch site: FRENCH GUIANA (FRGUI)
aabbcc
Your satellite tracking list
Your tracking list is empty




NASA's NSSDC Master Catalog

Two Line Element Set (TLE):
1 22116U 92060A   21109.98764299 -.00000192  00000-0  00000+0 0  9998
2 22116  12.9007  23.6191 0007039 334.2104 200.5871  0.99319805100773
Source of the keplerian elements: AFSPC